カタログに戻る

FENGYUN 1C DEB

LostPO
NORAD 31858·DEBRIS·🇨🇳 China

打ち上げ May 10, 1999 から Taiyuan Satellite Launch Center

Loading…

次のパス (今後24時間)

TLE

古いSource: Space-Track

元期: Aug 18, 2017, 22:01 UTC

1 31858U 99025CJY 17230.91756475  .00000093  00000-0  11308-3 0  9995
2 31858  97.6319 119.2854 0366565 251.2096 104.8956 13.57280047505154

AllMySatでFENGYUN 1C DEBをリアルタイム追跡

Download on the App Store